Location: Unspecified
(0.0000°N, 0.0000°E)
Time: 20:06:44
(UTC+00:00)

Tiros 1 despin weight - Pass Details

Date: 29 May 2022
Orbit: 591 x 639 km, 48.2° (Epoch: 25 June)

Event Time Altitude Azimuth Distance (km) Brightness Sun altitude
Rises 14:45:05 0° 248° (WSW) 2,926 ? 43.8°
Reaches altitude 10° 14:48:05 10° 268° (W) 2,010 ? 43.1°
Maximum altitude 14:51:10 18° 310° (NW) 1,565 ? 42.4°
Drops below altitude 10° 14:54:13 10° 352° (N) 1,989 ? 41.8°
Sets 14:57:11 0° 12° (NNE) 2,883 ? 41.1°
